Time,TemperatureF,DewpointF,PressureIn,WindDirection,WindDirectionDegrees,WindSpeedMPH,WindSpeedGustMPH,Humidity,HourlyPrecipIn,Conditions,Clouds,dailyrainin,SoftwareType,DateUTC
2013-05-01 00:01:00,61.9,60.5,30.06,WSW,249,0.0,1.0,95,0.00,,---,0.00,VWS V14.01,2013-05-01 04:01:00,
2013-05-01 00:15:00,61.9,60.5,30.07,WSW,249,0.0,1.0,95,0.00,,---,0.00,VWS V14.01,2013-05-01 04:15:00,
2013-05-01 00:30:00,61.7,60.3,30.07,WSW,249,0.0,1.0,95,0.00,,---,0.00,VWS V14.01,2013-05-01 04:30:00,
2013-05-01 00:45:00,61.5,60.1,30.08,WSW,249,0.0,0.0,95,0.00,,---,0.00,VWS V14.01,2013-05-01 04:45:00,
2013-05-01 01:00:00,61.3,59.9,30.08,WSW,249,0.0,0.0,95,0.00,,---,0.00,VWS V14.01,2013-05-01 05:00:00,
2013-05-01 01:15:00,61.1,59.7,30.08,WSW,249,0.0,0.0,95,0.00,,---,0.00,VWS V14.01,2013-05-01 05:15:00,
2013-05-01 01:30:00,61.0,59.9,30.09,WSW,249,0.0,1.0,96,0.00,,---,0.00,VWS V14.01,2013-05-01 05:30:00,
2013-05-01 01:45:00,61.0,59.6,30.08,WSW,249,0.0,1.0,95,0.00,,---,0.00,VWS V14.01,2013-05-01 05:45:00,
2013-05-01 02:00:00,60.7,59.3,30.08,WSW,253,1.0,1.0,95,0.00,,---,0.00,VWS V14.01,2013-05-01 06:00:00,
2013-05-01 02:15:00,60.5,59.1,30.08,NNW,333,0.0,1.0,95,0.00,,---,0.00,VWS V14.01,2013-05-01 06:15:00,
2013-05-01 02:30:00,60.2,58.8,30.07,NNW,342,0.0,2.0,95,0.00,,---,0.00,VWS V14.01,2013-05-01 06:30:00,
2013-05-01 02:45:00,59.9,58.8,30.07,NNW,342,0.0,2.0,96,0.00,,---,0.00,VWS V14.01,2013-05-01 06:45:00,
2013-05-01 03:00:00,59.6,58.5,30.07,NNW,346,1.0,2.0,96,0.00,,---,0.00,VWS V14.01,2013-05-01 07:00:00,
2013-05-01 03:15:00,59.4,58.3,30.07,North,354,1.0,2.0,96,0.00,,---,0.00,VWS V14.01,2013-05-01 07:15:00,
2013-05-01 03:30:00,59.1,58.0,30.07,North,354,2.0,3.0,96,0.00,,---,0.00,VWS V14.01,2013-05-01 07:30:00,
2013-05-01 03:45:00,58.9,57.8,30.07,North,351,1.0,2.0,96,0.00,,---,0.00,VWS V14.01,2013-05-01 07:45:00,
2013-05-01 04:00:00,58.5,57.4,30.07,North,4,2.0,2.0,96,0.00,,---,0.00,VWS V14.01,2013-05-01 08:00:00,
2013-05-01 04:15:00,58.2,57.1,30.07,North,360,1.0,2.0,96,0.00,,---,0.00,VWS V14.01,2013-05-01 08:15:00,
2013-05-01 04:30:00,57.9,56.8,30.07,North,5,1.0,2.0,96,0.00,,---,0.00,VWS V14.01,2013-05-01 08:30:00,
2013-05-01 04:45:00,57.8,56.7,30.07,NNE,15,1.0,2.0,96,0.00,,---,0.00,VWS V14.01,2013-05-01 08:45:00,
2013-05-01 05:00:00,57.7,56.9,30.08,North,9,1.0,3.0,97,0.00,,---,0.00,VWS V14.01,2013-05-01 09:00:00,
2013-05-01 05:15:00,57.6,56.8,30.08,NNE,13,0.0,2.0,97,0.00,,---,0.00,VWS V14.01,2013-05-01 09:15:00,
2013-05-01 05:30:00,57.6,56.8,30.07,North,11,1.0,3.0,97,0.00,,---,0.00,VWS V14.01,2013-05-01 09:30:00,
2013-05-01 05:45:00,57.5,56.4,30.07,NE,49,0.0,2.0,96,0.00,,---,0.00,VWS V14.01,2013-05-01 09:45:00,
2013-05-01 06:00:00,57.4,56.3,30.07,North,6,1.0,2.0,96,0.00,,---,0.00,VWS V14.01,2013-05-01 10:00:00,
2013-05-01 06:15:00,57.1,56.0,30.08,North,11,1.0,2.0,96,0.00,,---,0.00,VWS V14.01,2013-05-01 10:15:00,
2013-05-01 06:30:00,57.0,55.9,30.08,NNE,14,0.0,3.0,96,0.00,,---,0.00,VWS V14.01,2013-05-01 10:30:00,
2013-05-01 06:45:00,57.0,55.9,30.08,North,355,1.0,2.0,96,0.00,,---,0.00,VWS V14.01,2013-05-01 10:45:00,
2013-05-01 07:00:00,57.0,55.9,30.08,North,358,1.0,3.0,96,0.00,,---,0.00,VWS V14.01,2013-05-01 11:00:00,
2013-05-01 07:15:00,57.0,55.9,30.09,ESE,115,0.0,1.0,96,0.00,,---,0.00,VWS V14.01,2013-05-01 11:15:00,
2013-05-01 07:30:00,57.2,56.1,30.11,NNE,25,1.0,2.0,96,0.00,,---,0.00,VWS V14.01,2013-05-01 11:30:00,
2013-05-01 07:45:00,57.5,56.4,30.12,East,79,1.0,3.0,96,0.00,,---,0.00,VWS V14.01,2013-05-01 11:45:00,
2013-05-01 08:00:00,57.7,56.3,30.12,NE,41,0.0,3.0,95,0.00,,---,0.00,VWS V14.01,2013-05-01 12:00:00,
2013-05-01 08:15:00,58.0,56.3,30.12,ENE,63,0.0,2.0,94,0.00,,---,0.00,VWS V14.01,2013-05-01 12:15:00,
2013-05-01 08:30:00,58.3,56.3,30.13,NNW,342,0.0,3.0,93,0.00,,---,0.00,VWS V14.01,2013-05-01 12:30:00,
2013-05-01 08:45:00,58.5,56.2,30.13,ESE,118,1.0,3.0,92,0.00,,---,0.00,VWS V14.01,2013-05-01 12:45:00,
2013-05-01 09:00:00,58.9,56.0,30.14,NNE,27,1.0,3.0,90,0.00,,---,0.00,VWS V14.01,2013-05-01 13:00:00,
2013-05-01 09:15:00,59.1,55.9,30.14,NE,51,2.0,5.0,89,0.00,,---,0.00,VWS V14.01,2013-05-01 13:15:00,
2013-05-01 09:30:00,59.5,56.0,30.14,NW,304,1.0,4.0,88,0.00,,---,0.00,VWS V14.01,2013-05-01 13:30:00,
2013-05-01 09:45:00,59.5,56.0,30.15,East,93,2.0,4.0,88,0.00,,---,0.00,VWS V14.01,2013-05-01 13:45:00,
2013-05-01 10:00:00,60.0,56.1,30.16,North,6,0.0,3.0,87,0.00,,---,0.00,VWS V14.01,2013-05-01 14:00:00,
2013-05-01 10:15:00,60.6,56.1,30.16,ENE,66,2.0,4.0,85,0.00,,---,0.00,VWS V14.01,2013-05-01 14:15:00,
2013-05-01 10:30:00,60.5,56.0,30.17,ENE,58,0.0,4.0,85,0.00,,---,0.00,VWS V14.01,2013-05-01 14:30:00,
2013-05-01 10:45:00,60.6,56.1,30.17,NNW,346,3.0,4.0,85,0.00,,---,0.00,VWS V14.01,2013-05-01 14:45:00,
2013-05-01 11:00:00,60.8,56.6,30.17,NNW,328,0.0,3.0,86,0.00,,---,0.00,VWS V14.01,2013-05-01 15:00:00,
2013-05-01 11:15:00,60.8,56.6,30.17,ESE,104,1.0,4.0,86,0.00,,---,0.00,VWS V14.01,2013-05-01 15:15:00,
2013-05-01 11:30:00,60.5,56.0,30.16,NNE,14,0.0,5.0,85,0.00,,---,0.00,VWS V14.01,2013-05-01 15:30:00,
2013-05-01 11:45:00,60.2,56.0,30.16,East,84,1.0,2.0,86,0.00,,---,0.00,VWS V14.01,2013-05-01 15:45:00,
2013-05-01 12:00:00,60.7,56.5,30.16,East,81,0.0,3.0,86,0.00,,---,0.00,VWS V14.01,2013-05-01 16:00:00,
2013-05-01 12:15:00,61.1,56.6,30.17,East,89,1.0,2.0,85,0.00,,---,0.00,VWS V14.01,2013-05-01 16:15:00,
2013-05-01 12:30:00,61.7,57.2,30.16,East,98,1.0,3.0,85,0.00,,---,0.00,VWS V14.01,2013-05-01 16:30:00,
2013-05-01 12:45:00,63.0,57.8,30.16,ESE,108,0.0,3.0,83,0.00,,---,0.00,VWS V14.01,2013-05-01 16:45:00,
2013-05-01 13:00:00,65.1,58.1,30.15,NE,54,0.0,4.0,78,0.00,,---,0.00,VWS V14.01,2013-05-01 17:00:00,
2013-05-01 13:15:00,65.3,58.3,30.15,East,92,0.0,3.0,78,0.00,,---,0.00,VWS V14.01,2013-05-01 17:15:00,
2013-05-01 13:30:00,66.3,58.5,30.15,ENE,69,1.0,3.0,76,0.00,,---,0.00,VWS V14.01,2013-05-01 17:30:00,
2013-05-01 13:45:00,67.1,59.3,30.15,East,88,1.0,4.0,76,0.00,,---,0.00,VWS V14.01,2013-05-01 17:45:00,
2013-05-01 14:00:00,66.7,58.5,30.14,East,81,1.0,3.0,75,0.00,,---,0.00,VWS V14.01,2013-05-01 18:00:00,
2013-05-01 14:15:00,66.3,58.2,30.14,NE,55,1.0,5.0,75,0.00,,---,0.00,VWS V14.01,2013-05-01 18:15:00,
2013-05-01 14:30:00,66.7,58.2,30.14,NE,43,2.0,4.0,74,0.00,,---,0.00,VWS V14.01,2013-05-01 18:30:00,
2013-05-01 14:45:00,67.5,58.2,30.13,North,8,1.0,4.0,72,0.00,,---,0.00,VWS V14.01,2013-05-01 18:45:00,
2013-05-01 15:00:00,68.1,58.3,30.13,East,82,2.0,5.0,71,0.00,,---,0.00,VWS V14.01,2013-05-01 19:00:00,
2013-05-01 15:15:00,68.1,58.3,30.14,NE,48,1.0,4.0,71,0.00,,---,0.00,VWS V14.01,2013-05-01 19:15:00,
2013-05-01 15:30:00,68.6,59.6,30.13,ESE,102,1.0,5.0,73,0.00,,---,0.00,VWS V14.01,2013-05-01 19:30:00,
2013-05-01 15:45:00,69.3,59.5,30.13,East,99,1.0,3.0,71,0.00,,---,0.00,VWS V14.01,2013-05-01 19:45:00,
2013-05-01 16:00:00,68.9,58.7,30.13,North,358,0.0,4.0,70,0.00,,---,0.00,VWS V14.01,2013-05-01 20:00:00,
2013-05-01 16:15:00,68.1,59.1,30.12,North,353,3.0,3.0,73,0.00,,---,0.00,VWS V14.01,2013-05-01 20:15:00,
2013-05-01 16:30:00,68.3,58.9,30.11,ENE,70,1.0,3.0,72,0.00,,---,0.00,VWS V14.01,2013-05-01 20:30:00,
2013-05-01 16:45:00,68.3,58.9,30.11,NNE,15,1.0,5.0,72,0.00,,---,0.00,VWS V14.01,2013-05-01 20:45:00,
2013-05-01 17:00:00,68.0,59.0,30.11,NW,321,2.0,3.0,73,0.00,,---,0.00,VWS V14.01,2013-05-01 21:00:00,
2013-05-01 17:15:00,68.5,58.7,30.11,North,353,1.0,4.0,71,0.00,,---,0.00,VWS V14.01,2013-05-01 21:15:00,
2013-05-01 17:30:00,68.3,58.9,30.11,NNE,25,0.0,3.0,72,0.00,,---,0.00,VWS V14.01,2013-05-01 21:30:00,
2013-05-01 17:45:00,67.4,59.6,30.11,ENE,65,1.0,3.0,76,0.00,,---,0.00,VWS V14.01,2013-05-01 21:45:00,
2013-05-01 18:00:00,67.1,59.3,30.11,NNW,342,1.0,3.0,76,0.00,,---,0.00,VWS V14.01,2013-05-01 22:00:00,
2013-05-01 18:15:00,66.7,59.3,30.11,NNW,330,0.0,2.0,77,0.00,,---,0.00,VWS V14.01,2013-05-01 22:15:00,
2013-05-01 18:30:00,66.5,58.7,30.10,NE,34,0.0,2.0,76,0.00,,---,0.00,VWS V14.01,2013-05-01 22:30:00,
2013-05-01 18:45:00,66.2,58.8,30.10,North,356,0.0,1.0,77,0.00,,---,0.00,VWS V14.01,2013-05-01 22:45:00,
2013-05-01 19:00:00,65.8,59.1,30.10,NE,44,0.0,1.0,79,0.00,,---,0.00,VWS V14.01,2013-05-01 23:00:00,
2013-05-01 19:15:00,65.3,59.0,30.11,NE,39,0.0,2.0,80,0.00,,---,0.00,VWS V14.01,2013-05-01 23:15:00,
2013-05-01 19:30:00,64.9,58.6,30.11,NNE,13,0.0,0.0,80,0.00,,---,0.00,VWS V14.01,2013-05-01 23:30:00,
2013-05-01 19:45:00,64.3,58.3,30.11,NNE,12,0.0,0.0,81,0.00,,---,0.00,VWS V14.01,2013-05-01 23:45:00,
2013-05-01 20:00:00,63.8,58.5,30.11,NNE,12,0.0,0.0,83,0.00,,---,0.00,VWS V14.01,2013-05-02 00:00:00,
2013-05-01 20:15:00,63.2,58.6,30.11,NNE,12,0.0,0.0,85,0.00,,---,0.00,VWS V14.01,2013-05-02 00:15:00,
2013-05-01 20:30:00,62.6,58.4,30.11,NNE,12,0.0,0.0,86,0.00,,---,0.00,VWS V14.01,2013-05-02 00:30:00,
2013-05-01 20:45:00,62.2,58.3,30.12,NNE,12,0.0,0.0,87,0.00,,---,0.00,VWS V14.01,2013-05-02 00:45:00,
2013-05-01 21:01:00,62.1,58.5,30.12,North,11,0.0,1.0,88,0.00,,---,0.00,VWS V14.01,2013-05-02 01:01:00,
2013-05-01 21:15:00,62.0,58.4,30.12,North,351,0.0,2.0,88,0.00,,---,0.00,VWS V14.01,2013-05-02 01:15:00,
2013-05-01 21:31:00,61.8,58.2,30.13,ENE,64,0.0,1.0,88,0.00,,---,0.00,VWS V14.01,2013-05-02 01:31:00,
2013-05-01 21:46:00,61.8,58.2,30.13,NNE,32,0.0,2.0,88,0.00,,---,0.00,VWS V14.01,2013-05-02 01:46:00,
2013-05-01 22:01:00,61.5,57.9,30.14,NNE,32,0.0,1.0,88,0.00,,---,0.00,VWS V14.01,2013-05-02 02:01:00,
2013-05-01 22:15:00,61.3,57.7,30.15,NW,315,0.0,2.0,88,0.00,,---,0.00,VWS V14.01,2013-05-02 02:15:00,
2013-05-01 22:31:00,61.2,57.6,30.15,East,88,0.0,2.0,88,0.00,,---,0.00,VWS V14.01,2013-05-02 02:31:00,
2013-05-01 22:46:00,61.0,57.7,30.15,WNW,300,0.0,2.0,89,0.00,,---,0.00,VWS V14.01,2013-05-02 02:46:00,
2013-05-01 23:01:00,60.9,57.6,30.15,NE,50,0.0,1.0,89,0.00,,---,0.00,VWS V14.01,2013-05-02 03:01:00,
2013-05-01 23:15:00,60.7,57.4,30.15,NE,47,0.0,3.0,89,0.00,,---,0.00,VWS V14.01,2013-05-02 03:15:00,
2013-05-01 23:30:00,60.5,57.2,30.15,NNE,30,0.0,4.0,89,0.00,,---,0.00,VWS V14.01,2013-05-02 03:30:00,
2013-05-01 23:46:00,60.3,57.4,30.16,ENE,68,0.0,2.0,90,0.00,,---,0.00,VWS V14.01,2013-05-02 03:46:00,